Year,Month,Day,Hour,Minute,Value (Times are PST for temperature in C)
2018,07,17,00,00,17.60
2018,07,17,00,01,17.60
2018,07,17,00,02,17.60
2018,07,17,00,03,17.60
2018,07,17,00,04,17.60
2018,07,17,00,05,17.60
2018,07,17,00,06,17.60
2018,07,17,00,07,17.60
2018,07,17,00,08,17.60
2018,07,17,00,09,17.60
2018,07,17,00,10,17.60
2018,07,17,00,11,17.60
2018,07,17,00,12,17.50
2018,07,17,00,13,17.50
2018,07,17,00,14,17.50
2018,07,17,00,15,17.50
2018,07,17,00,16,17.50
2018,07,17,00,17,17.50
2018,07,17,00,18,17.50
2018,07,17,00,19,17.50
2018,07,17,00,20,17.50
2018,07,17,00,21,17.50
2018,07,17,00,22,17.50
2018,07,17,00,23,17.50
2018,07,17,00,24,17.50
2018,07,17,00,25,17.50
2018,07,17,00,26,17.60
2018,07,17,00,27,17.70
2018,07,17,00,28,17.70
2018,07,17,00,29,17.80
2018,07,17,00,30,17.80
2018,07,17,00,31,17.80
2018,07,17,00,32,17.80
2018,07,17,00,33,17.90
2018,07,17,00,34,17.90
2018,07,17,00,35,17.90
2018,07,17,00,36,18.00
2018,07,17,00,37,18.00
2018,07,17,00,38,18.10
2018,07,17,00,39,18.10
2018,07,17,00,40,18.10
2018,07,17,00,41,18.10
2018,07,17,00,42,18.10
2018,07,17,00,43,18.10
2018,07,17,00,44,18.10
2018,07,17,00,45,18.10
2018,07,17,00,46,18.10
2018,07,17,00,47,18.00
2018,07,17,00,48,18.00
2018,07,17,00,49,18.00
2018,07,17,00,50,17.90
2018,07,17,00,51,17.90
2018,07,17,00,52,17.90
2018,07,17,00,53,17.90
2018,07,17,00,54,17.90
2018,07,17,00,55,17.90
2018,07,17,00,56,17.90
2018,07,17,00,57,17.90
2018,07,17,00,58,17.90
2018,07,17,00,59,17.90
2018,07,17,01,00,17.90
2018,07,17,01,01,17.90
2018,07,17,01,02,17.90
2018,07,17,01,03,17.90
2018,07,17,01,04,17.90
2018,07,17,01,05,17.90
2018,07,17,01,06,17.90
2018,07,17,01,07,17.90
2018,07,17,01,08,17.90
2018,07,17,01,09,17.80
2018,07,17,01,10,17.80
2018,07,17,01,11,17.80
2018,07,17,01,12,17.80
2018,07,17,01,13,17.70
2018,07,17,01,14,17.70
2018,07,17,01,15,17.60
2018,07,17,01,16,17.60
2018,07,17,01,17,17.50
2018,07,17,01,18,17.40
2018,07,17,01,19,17.40
2018,07,17,01,20,17.30
2018,07,17,01,21,17.30
2018,07,17,01,22,17.20
2018,07,17,01,23,17.10
2018,07,17,01,24,17.10
2018,07,17,01,25,17.10
2018,07,17,01,26,17.00
2018,07,17,01,27,16.90
2018,07,17,01,28,16.90
2018,07,17,01,29,16.90
2018,07,17,01,30,16.80
2018,07,17,01,31,16.80
2018,07,17,01,32,16.80
2018,07,17,01,33,16.70
2018,07,17,01,34,16.70
2018,07,17,01,35,16.70
2018,07,17,01,36,16.60
2018,07,17,01,37,16.60
2018,07,17,01,38,16.60
2018,07,17,01,39,16.50
2018,07,17,01,40,16.50
2018,07,17,01,41,16.50
2018,07,17,01,42,16.40
2018,07,17,01,43,16.40
2018,07,17,01,44,16.40
2018,07,17,01,45,16.40
2018,07,17,01,46,16.40
2018,07,17,01,47,16.40
2018,07,17,01,48,16.40
2018,07,17,01,49,16.40
2018,07,17,01,50,16.40
2018,07,17,01,51,16.40
2018,07,17,01,52,16.40
2018,07,17,01,53,16.40
2018,07,17,01,54,16.40
2018,07,17,01,55,16.30
2018,07,17,01,56,16.30
2018,07,17,01,57,16.30
2018,07,17,01,58,16.30
2018,07,17,01,59,16.30
2018,07,17,02,00,16.30
2018,07,17,02,01,16.30
2018,07,17,02,02,16.30
2018,07,17,02,03,16.20
2018,07,17,02,04,16.20
2018,07,17,02,05,16.20
2018,07,17,02,06,16.20
2018,07,17,02,07,16.20
2018,07,17,02,08,16.20
2018,07,17,02,09,16.20
2018,07,17,02,10,16.20
2018,07,17,02,11,16.20
2018,07,17,02,12,16.20
2018,07,17,02,13,16.20
2018,07,17,02,14,16.20
2018,07,17,02,15,16.10
2018,07,17,02,16,16.10
2018,07,17,02,17,16.10
2018,07,17,02,18,16.10
2018,07,17,02,19,16.10
2018,07,17,02,20,16.10
2018,07,17,02,21,16.00
2018,07,17,02,22,16.00
2018,07,17,02,23,16.00
2018,07,17,02,24,16.00
2018,07,17,02,25,16.00
2018,07,17,02,26,15.90
2018,07,17,02,27,15.90
2018,07,17,02,28,15.90
2018,07,17,02,29,16.00
2018,07,17,02,30,16.00
2018,07,17,02,31,16.00
2018,07,17,02,32,16.00
2018,07,17,02,33,16.00
2018,07,17,02,34,16.00
2018,07,17,02,35,16.00
2018,07,17,02,36,16.00
2018,07,17,02,37,16.00
2018,07,17,02,38,16.00
2018,07,17,02,39,16.00
2018,07,17,02,40,16.00
2018,07,17,02,41,16.00
2018,07,17,02,42,16.10
2018,07,17,02,43,16.10
2018,07,17,02,44,16.10
2018,07,17,02,45,16.10
2018,07,17,02,46,16.10
2018,07,17,02,47,16.10
2018,07,17,02,48,16.10
2018,07,17,02,49,16.10
2018,07,17,02,50,16.20
2018,07,17,02,51,16.20
2018,07,17,02,52,16.30
2018,07,17,02,53,16.30
2018,07,17,02,54,16.30
2018,07,17,02,55,16.40
2018,07,17,02,56,16.40
2018,07,17,02,57,16.40
2018,07,17,02,58,16.40
2018,07,17,02,59,16.50
2018,07,17,03,00,16.50
2018,07,17,03,01,16.50
2018,07,17,03,02,16.60
2018,07,17,03,03,16.60
2018,07,17,03,04,16.60
2018,07,17,03,05,16.60
2018,07,17,03,06,16.60
2018,07,17,03,07,16.60
2018,07,17,03,08,16.60
2018,07,17,03,09,16.50
2018,07,17,03,10,16.50
2018,07,17,03,11,16.50
2018,07,17,03,12,16.50
2018,07,17,03,13,16.40
2018,07,17,03,14,16.40
2018,07,17,03,15,16.40
2018,07,17,03,16,16.40
2018,07,17,03,17,16.40
2018,07,17,03,18,16.30
2018,07,17,03,19,16.30
2018,07,17,03,20,16.30
2018,07,17,03,21,16.30
2018,07,17,03,22,16.30
2018,07,17,03,23,16.30
2018,07,17,03,24,16.30
2018,07,17,03,25,16.30
2018,07,17,03,26,16.30
2018,07,17,03,27,16.20
2018,07,17,03,28,16.20
2018,07,17,03,29,16.20
2018,07,17,03,30,16.20
2018,07,17,03,31,16.10
2018,07,17,03,32,16.10
2018,07,17,03,33,16.00
2018,07,17,03,34,16.00
2018,07,17,03,35,15.90
2018,07,17,03,36,15.80
2018,07,17,03,37,15.80
2018,07,17,03,38,15.70
2018,07,17,03,39,15.70
2018,07,17,03,40,15.60
2018,07,17,03,41,15.50
2018,07,17,03,42,15.50
2018,07,17,03,43,15.40
2018,07,17,03,44,15.40
2018,07,17,03,45,15.40
2018,07,17,03,46,15.30
2018,07,17,03,47,15.30
2018,07,17,03,48,15.30
2018,07,17,03,49,15.20
2018,07,17,03,50,15.20
2018,07,17,03,51,15.20
2018,07,17,03,52,15.20
2018,07,17,03,53,15.10
2018,07,17,03,54,15.10
2018,07,17,03,55,15.10
2018,07,17,03,56,15.10
2018,07,17,03,57,15.10
2018,07,17,03,58,15.10
2018,07,17,03,59,15.00
2018,07,17,04,00,15.00
2018,07,17,04,01,15.00
2018,07,17,04,02,15.00
2018,07,17,04,03,15.00
2018,07,17,04,04,14.90
2018,07,17,04,05,14.90
2018,07,17,04,06,14.90
2018,07,17,04,07,14.90
2018,07,17,04,08,14.90
2018,07,17,04,09,14.90
2018,07,17,04,10,14.90
2018,07,17,04,11,14.90
2018,07,17,04,12,14.90
2018,07,17,04,13,14.80
2018,07,17,04,14,14.80
2018,07,17,04,15,14.80
2018,07,17,04,16,14.80
2018,07,17,04,17,14.70
2018,07,17,04,18,14.70
2018,07,17,04,19,14.70
2018,07,17,04,20,14.70
2018,07,17,04,21,14.60
2018,07,17,04,22,14.60
2018,07,17,04,23,14.60
2018,07,17,04,24,14.60
2018,07,17,04,25,14.60
2018,07,17,04,26,14.60
2018,07,17,04,27,14.60
2018,07,17,04,28,14.60
2018,07,17,04,29,14.60
2018,07,17,04,30,14.60
2018,07,17,04,31,14.60
2018,07,17,04,32,14.50
2018,07,17,04,33,14.50
2018,07,17,04,34,14.50
2018,07,17,04,35,14.50
2018,07,17,04,36,14.50
2018,07,17,04,37,14.50
2018,07,17,04,38,14.40
2018,07,17,04,39,14.40
2018,07,17,04,40,14.40
2018,07,17,04,41,14.40
2018,07,17,04,42,14.30
2018,07,17,04,43,14.30
2018,07,17,04,44,14.30
2018,07,17,04,45,14.30
2018,07,17,04,46,14.20
2018,07,17,04,47,14.20
2018,07,17,04,48,14.20
2018,07,17,04,49,14.20
2018,07,17,04,50,14.10
2018,07,17,04,51,14.10
2018,07,17,04,52,14.10
2018,07,17,04,53,14.10
2018,07,17,04,54,14.00
2018,07,17,04,55,14.00
2018,07,17,04,56,14.00
2018,07,17,04,57,14.00
2018,07,17,04,58,14.00
2018,07,17,04,59,13.90
2018,07,17,05,00,13.90
2018,07,17,05,01,13.90
2018,07,17,05,02,13.90
2018,07,17,05,03,13.90
2018,07,17,05,04,13.80
2018,07,17,05,05,13.80
2018,07,17,05,06,13.80
2018,07,17,05,07,13.80
2018,07,17,05,08,13.80
2018,07,17,05,09,13.80
2018,07,17,05,10,13.70
2018,07,17,05,11,13.70
2018,07,17,05,12,13.70
2018,07,17,05,13,13.70
2018,07,17,05,14,13.70
2018,07,17,05,15,13.70
2018,07,17,05,16,13.60
2018,07,17,05,17,13.60
2018,07,17,05,18,13.60
2018,07,17,05,19,13.60
2018,07,17,05,20,13.60
2018,07,17,05,21,13.50
2018,07,17,05,22,13.50
2018,07,17,05,23,13.50
2018,07,17,05,24,13.40
2018,07,17,05,25,13.40
2018,07,17,05,26,13.40
2018,07,17,05,27,13.40
2018,07,17,05,28,13.40
2018,07,17,05,29,13.40
2018,07,17,05,30,13.40
2018,07,17,05,31,13.30
2018,07,17,05,32,13.30
2018,07,17,05,33,13.30
2018,07,17,05,34,13.30
2018,07,17,05,35,13.30
2018,07,17,05,36,13.30
2018,07,17,05,37,13.30
2018,07,17,05,38,13.30
2018,07,17,05,39,13.30
2018,07,17,05,40,13.30
2018,07,17,05,41,13.30
2018,07,17,05,42,13.30
2018,07,17,05,43,13.30
2018,07,17,05,44,13.30
2018,07,17,05,45,13.30
2018,07,17,05,46,13.30
2018,07,17,05,47,13.30
2018,07,17,05,48,13.30
2018,07,17,05,49,13.30
2018,07,17,05,50,13.30
2018,07,17,05,51,13.30
2018,07,17,05,52,13.30
2018,07,17,05,53,13.30
2018,07,17,05,54,13.30
2018,07,17,05,55,13.30
2018,07,17,05,56,13.30
2018,07,17,05,57,13.30
2018,07,17,05,58,13.30
2018,07,17,05,59,13.30
2018,07,17,06,00,13.30
2018,07,17,06,01,13.40
2018,07,17,06,02,13.40
2018,07,17,06,03,13.40
2018,07,17,06,04,13.40
2018,07,17,06,05,13.40
2018,07,17,06,06,13.50
2018,07,17,06,07,13.50
2018,07,17,06,08,13.50
2018,07,17,06,09,13.60
2018,07,17,06,10,13.60
2018,07,17,06,11,13.60
2018,07,17,06,12,13.70
2018,07,17,06,13,13.70
2018,07,17,06,14,13.70
2018,07,17,06,15,13.80
2018,07,17,06,16,13.80
2018,07,17,06,17,13.80
2018,07,17,06,18,13.80
2018,07,17,06,19,13.90
2018,07,17,06,20,13.90
2018,07,17,06,21,14.00
2018,07,17,06,22,14.00
2018,07,17,06,23,14.10
2018,07,17,06,24,14.10
2018,07,17,06,25,14.10
2018,07,17,06,26,14.20
2018,07,17,06,27,14.20
2018,07,17,06,28,14.30
2018,07,17,06,29,14.30
2018,07,17,06,30,14.40
2018,07,17,06,31,14.40
2018,07,17,06,32,14.40
2018,07,17,06,33,14.50
2018,07,17,06,34,14.60
2018,07,17,06,35,14.60
2018,07,17,06,36,14.70
2018,07,17,06,37,14.70
2018,07,17,06,38,14.80
2018,07,17,06,39,14.80
2018,07,17,06,40,14.80
2018,07,17,06,41,14.90
2018,07,17,06,42,15.00
2018,07,17,06,43,15.00
2018,07,17,06,44,15.10
2018,07,17,06,45,15.10
2018,07,17,06,46,15.20
2018,07,17,06,47,15.20
2018,07,17,06,48,15.20
2018,07,17,06,49,15.30
2018,07,17,06,50,15.30
2018,07,17,06,51,15.30
2018,07,17,06,52,15.40
2018,07,17,06,53,15.40
2018,07,17,06,54,15.40
2018,07,17,06,55,15.40
2018,07,17,06,56,15.50
2018,07,17,06,57,15.50
2018,07,17,06,58,15.50
2018,07,17,06,59,15.50
2018,07,17,07,00,15.60
2018,07,17,07,01,15.60
2018,07,17,07,02,15.60
2018,07,17,07,03,15.60
2018,07,17,07,04,15.70
2018,07,17,07,05,15.70
2018,07,17,07,06,15.70
2018,07,17,07,07,15.80
2018,07,17,07,08,15.80
2018,07,17,07,09,15.90
2018,07,17,07,10,15.90
2018,07,17,07,11,16.00
2018,07,17,07,12,16.00
2018,07,17,07,13,16.10
2018,07,17,07,14,16.10
2018,07,17,07,15,16.20
2018,07,17,07,16,16.20
2018,07,17,07,17,16.20
2018,07,17,07,18,16.30
2018,07,17,07,19,16.30
2018,07,17,07,20,16.30
2018,07,17,07,21,16.40
2018,07,17,07,22,16.40
2018,07,17,07,23,16.40
2018,07,17,07,24,16.40
2018,07,17,07,25,16.50
2018,07,17,07,26,16.50
2018,07,17,07,27,16.60
2018,07,17,07,28,16.60
2018,07,17,07,29,16.70
2018,07,17,07,30,16.70
2018,07,17,07,31,16.80
2018,07,17,07,32,16.90
2018,07,17,07,33,16.90
2018,07,17,07,34,17.00
2018,07,17,07,35,17.10
2018,07,17,07,36,17.10
2018,07,17,07,37,17.20
2018,07,17,07,38,17.20
2018,07,17,07,39,17.30
2018,07,17,07,40,17.30
2018,07,17,07,41,17.30
2018,07,17,07,42,17.40
2018,07,17,07,43,17.40
2018,07,17,07,44,17.50
2018,07,17,07,45,17.50
2018,07,17,07,46,17.60
2018,07,17,07,47,17.60
2018,07,17,07,48,17.70
2018,07,17,07,49,17.80
2018,07,17,07,50,17.80
2018,07,17,07,51,17.80
2018,07,17,07,52,17.90
2018,07,17,07,53,17.90
2018,07,17,07,54,17.90
2018,07,17,07,55,18.00
2018,07,17,07,56,18.00
2018,07,17,07,57,18.10
2018,07,17,07,58,18.10
2018,07,17,07,59,18.10
2018,07,17,08,00,18.10
2018,07,17,08,01,18.10
2018,07,17,08,02,18.10
2018,07,17,08,03,18.10
2018,07,17,08,04,18.10
2018,07,17,08,05,18.10
2018,07,17,08,06,18.20
2018,07,17,08,07,18.20
2018,07,17,08,08,18.30
2018,07,17,08,09,18.30
2018,07,17,08,10,18.30
2018,07,17,08,11,18.30
2018,07,17,08,12,18.40
2018,07,17,08,13,18.40
2018,07,17,08,14,18.40
2018,07,17,08,15,18.40
2018,07,17,08,16,18.50
2018,07,17,08,17,18.50
2018,07,17,08,18,18.60
2018,07,17,08,19,18.60
2018,07,17,08,20,18.70
2018,07,17,08,21,18.70
2018,07,17,08,22,18.70
2018,07,17,08,23,18.80
2018,07,17,08,24,18.80
2018,07,17,08,25,18.80
2018,07,17,08,26,18.90
2018,07,17,08,27,18.90
2018,07,17,08,28,18.90
2018,07,17,08,29,18.90
2018,07,17,08,30,18.90
2018,07,17,08,31,18.90
2018,07,17,08,32,18.90
2018,07,17,08,33,18.90
2018,07,17,08,34,19.00
2018,07,17,08,35,19.00
2018,07,17,08,36,18.90
2018,07,17,08,37,18.90
2018,07,17,08,38,19.00
2018,07,17,08,39,19.00
2018,07,17,08,40,19.10
2018,07,17,08,41,19.10
2018,07,17,08,42,19.10
2018,07,17,08,43,19.20
2018,07,17,08,44,19.20
2018,07,17,08,45,19.30
2018,07,17,08,46,19.30
2018,07,17,08,47,19.30
2018,07,17,08,48,19.40
2018,07,17,08,49,19.50
2018,07,17,08,50,19.50
2018,07,17,08,51,19.60
2018,07,17,08,52,19.70
2018,07,17,08,53,19.70
2018,07,17,08,54,19.80
2018,07,17,08,55,19.80
2018,07,17,08,56,19.90
2018,07,17,08,57,19.90
2018,07,17,08,58,19.90
2018,07,17,08,59,19.90
2018,07,17,09,00,19.90
2018,07,17,09,01,19.90
2018,07,17,09,02,19.90
2018,07,17,09,03,19.90
2018,07,17,09,04,19.90
2018,07,17,09,05,20.00
2018,07,17,09,06,20.00
2018,07,17,09,07,20.10
2018,07,17,09,08,20.10
2018,07,17,09,09,20.20
2018,07,17,09,10,20.20
2018,07,17,09,11,20.30
2018,07,17,09,12,20.30
2018,07,17,09,13,20.40
2018,07,17,09,14,20.40
2018,07,17,09,15,20.50
2018,07,17,09,16,20.50
2018,07,17,09,17,20.60
2018,07,17,09,18,20.60
2018,07,17,09,19,20.60
2018,07,17,09,20,20.60
2018,07,17,09,21,20.70
2018,07,17,09,22,20.70
2018,07,17,09,23,20.80
2018,07,17,09,24,20.80
2018,07,17,09,25,20.90
2018,07,17,09,26,21.00
2018,07,17,09,27,21.00
2018,07,17,09,28,21.10
2018,07,17,09,29,21.10
2018,07,17,09,30,21.10
2018,07,17,09,31,21.10
2018,07,17,09,32,21.10
2018,07,17,09,33,21.00
2018,07,17,09,34,21.00
2018,07,17,09,35,20.90
2018,07,17,09,36,20.90
2018,07,17,09,37,20.80
2018,07,17,09,38,20.80
2018,07,17,09,39,20.80
2018,07,17,09,40,20.80
2018,07,17,09,41,20.80
2018,07,17,09,42,20.80
2018,07,17,09,43,20.80
2018,07,17,09,44,20.80
2018,07,17,09,45,20.80
2018,07,17,09,46,20.80
2018,07,17,09,47,20.70
2018,07,17,09,48,20.70
2018,07,17,09,49,20.60
2018,07,17,09,50,20.50
2018,07,17,09,51,20.40
2018,07,17,09,52,20.30
2018,07,17,09,53,20.20
2018,07,17,09,54,20.10
2018,07,17,09,55,20.10
2018,07,17,09,56,20.00
2018,07,17,09,57,20.10
2018,07,17,09,58,20.10
2018,07,17,09,59,20.10
2018,07,17,10,00,20.10
2018,07,17,10,01,20.10
2018,07,17,10,02,20.10
2018,07,17,10,03,20.10
2018,07,17,10,04,20.10
2018,07,17,10,05,20.10
2018,07,17,10,06,20.10
2018,07,17,10,07,20.10
2018,07,17,10,08,20.10
2018,07,17,10,09,20.10
2018,07,17,10,10,20.10
2018,07,17,10,11,20.20
2018,07,17,10,12,20.20
2018,07,17,10,13,20.20
2018,07,17,10,14,20.20
2018,07,17,10,15,20.20
2018,07,17,10,16,20.20
2018,07,17,10,17,20.20
2018,07,17,10,18,20.20
2018,07,17,10,19,20.20
2018,07,17,10,20,20.20
2018,07,17,10,21,20.20
2018,07,17,10,22,20.20
2018,07,17,10,23,20.30
2018,07,17,10,24,20.30
2018,07,17,10,25,20.30
2018,07,17,10,26,20.30
2018,07,17,10,27,20.30
2018,07,17,10,28,20.30
2018,07,17,10,29,20.40
2018,07,17,10,30,20.50
2018,07,17,10,31,20.60
2018,07,17,10,32,20.70
2018,07,17,10,33,20.70
2018,07,17,10,34,20.80
2018,07,17,10,35,20.90
2018,07,17,10,36,20.90
2018,07,17,10,37,20.90
2018,07,17,10,38,20.90
2018,07,17,10,39,20.90
2018,07,17,10,40,20.90
2018,07,17,10,41,20.80
2018,07,17,10,42,20.90
2018,07,17,10,43,20.90
2018,07,17,10,44,20.90
2018,07,17,10,45,21.00
2018,07,17,10,46,21.00
2018,07,17,10,47,21.10
2018,07,17,10,48,21.10
2018,07,17,10,49,21.20
2018,07,17,10,50,21.20
2018,07,17,10,51,21.20
2018,07,17,10,52,21.20
2018,07,17,10,53,21.20
2018,07,17,10,54,21.20
2018,07,17,10,55,21.30
2018,07,17,10,56,21.40
2018,07,17,10,57,21.40
2018,07,17,10,58,21.50
2018,07,17,10,59,21.50
2018,07,17,11,00,21.40
2018,07,17,11,01,21.40
2018,07,17,11,02,21.30
2018,07,17,11,03,21.20
2018,07,17,11,04,21.20
2018,07,17,11,05,21.20
2018,07,17,11,06,21.20
2018,07,17,11,07,21.20
2018,07,17,11,08,21.20
2018,07,17,11,09,21.20
2018,07,17,11,10,21.20
2018,07,17,11,11,21.20
2018,07,17,11,12,21.20
2018,07,17,11,13,21.20
2018,07,17,11,14,21.30
2018,07,17,11,15,21.40
2018,07,17,11,16,21.40
2018,07,17,11,17,21.50
2018,07,17,11,18,21.50
2018,07,17,11,19,21.50
2018,07,17,11,20,21.50
2018,07,17,11,21,21.60
2018,07,17,11,22,21.60
2018,07,17,11,23,21.70
2018,07,17,11,24,21.70
2018,07,17,11,25,21.80
2018,07,17,11,26,21.80
2018,07,17,11,27,21.90
2018,07,17,11,28,22.00
2018,07,17,11,29,22.20
2018,07,17,11,30,22.30
2018,07,17,11,31,22.40
2018,07,17,11,32,22.50
2018,07,17,11,33,22.60
2018,07,17,11,34,22.70
2018,07,17,11,35,22.70
2018,07,17,11,36,22.70
2018,07,17,11,37,22.70
2018,07,17,11,38,22.70
2018,07,17,11,39,22.70
2018,07,17,11,40,22.80
2018,07,17,11,41,22.80
2018,07,17,11,42,22.80
2018,07,17,11,43,22.80
2018,07,17,11,44,22.80
2018,07,17,11,45,22.80
2018,07,17,11,46,22.70
2018,07,17,11,47,22.70
2018,07,17,11,48,22.70
2018,07,17,11,49,22.70
2018,07,17,11,50,22.60
2018,07,17,11,51,22.60
2018,07,17,11,52,22.50
2018,07,17,11,53,22.50
2018,07,17,11,54,22.50
2018,07,17,11,55,22.50
2018,07,17,11,56,22.60
2018,07,17,11,57,22.50
2018,07,17,11,58,22.50
2018,07,17,11,59,22.60
2018,07,17,12,00,22.60
2018,07,17,12,01,22.60
2018,07,17,12,02,22.50
2018,07,17,12,03,22.50
2018,07,17,12,04,22.40
2018,07,17,12,05,22.30
2018,07,17,12,06,22.20
2018,07,17,12,07,22.20
2018,07,17,12,08,22.20
2018,07,17,12,09,22.20
2018,07,17,12,10,22.20
2018,07,17,12,11,22.30
2018,07,17,12,12,22.30
2018,07,17,12,13,22.30
2018,07,17,12,14,22.40
2018,07,17,12,15,22.40
2018,07,17,12,16,22.40
2018,07,17,12,17,22.40
2018,07,17,12,18,22.50
2018,07,17,12,19,22.50
2018,07,17,12,20,22.60
2018,07,17,12,21,22.60
2018,07,17,12,22,22.60
2018,07,17,12,23,22.60
2018,07,17,12,24,22.60
2018,07,17,12,25,22.50
2018,07,17,12,26,22.50
2018,07,17,12,27,22.60
2018,07,17,12,28,22.60
2018,07,17,12,29,22.60
2018,07,17,12,30,22.60
2018,07,17,12,31,22.60
2018,07,17,12,32,22.60
2018,07,17,12,33,22.60
2018,07,17,12,34,22.60
2018,07,17,12,35,22.60
2018,07,17,12,36,22.50
2018,07,17,12,37,22.50
2018,07,17,12,38,22.60
2018,07,17,12,39,22.60
2018,07,17,12,40,22.60
2018,07,17,12,41,22.70
2018,07,17,12,42,22.70
2018,07,17,12,43,22.80
2018,07,17,12,44,22.90
2018,07,17,12,45,22.90
2018,07,17,12,46,23.00
2018,07,17,12,47,23.00
2018,07,17,12,48,23.10
2018,07,17,12,49,23.20
2018,07,17,12,50,23.20
2018,07,17,12,51,23.30
2018,07,17,12,52,23.30
2018,07,17,12,53,23.30
2018,07,17,12,54,23.40
2018,07,17,12,55,23.40
2018,07,17,12,56,23.40
2018,07,17,12,57,23.40
2018,07,17,12,58,23.40
2018,07,17,12,59,23.50
2018,07,17,13,00,23.50
2018,07,17,13,01,23.50
2018,07,17,13,02,23.60
2018,07,17,13,03,23.60
2018,07,17,13,04,23.60
2018,07,17,13,05,23.60
2018,07,17,13,06,23.60
2018,07,17,13,07,23.60
2018,07,17,13,08,23.50
2018,07,17,13,09,23.50
2018,07,17,13,10,23.40
2018,07,17,13,11,23.50
2018,07,17,13,12,23.50
2018,07,17,13,13,23.50
2018,07,17,13,14,23.60
2018,07,17,13,15,23.50
2018,07,17,13,16,23.40
2018,07,17,13,17,23.40
2018,07,17,13,18,23.30
2018,07,17,13,19,23.20
2018,07,17,13,20,23.10
2018,07,17,13,21,23.10
2018,07,17,13,22,23.10
2018,07,17,13,23,23.20
2018,07,17,13,24,23.20
2018,07,17,13,25,23.30
2018,07,17,13,26,23.30
2018,07,17,13,27,23.30
2018,07,17,13,28,23.30
2018,07,17,13,29,23.40
2018,07,17,13,30,23.50
2018,07,17,13,31,23.60
2018,07,17,13,32,23.70
2018,07,17,13,33,23.70
2018,07,17,13,34,23.60
2018,07,17,13,35,23.50
2018,07,17,13,36,23.50
2018,07,17,13,37,23.50
2018,07,17,13,38,23.50
2018,07,17,13,39,23.50
2018,07,17,13,40,23.50
2018,07,17,13,41,23.60
2018,07,17,13,42,23.60
2018,07,17,13,43,23.60
2018,07,17,13,44,23.60
2018,07,17,13,45,23.70
2018,07,17,13,46,23.70
2018,07,17,13,47,23.80
2018,07,17,13,48,23.90
2018,07,17,13,49,24.00
2018,07,17,13,50,24.10
2018,07,17,13,51,24.20
2018,07,17,13,52,24.30
2018,07,17,13,53,24.30
2018,07,17,13,54,24.40
2018,07,17,13,55,24.50
2018,07,17,13,56,24.50
2018,07,17,13,57,24.40
2018,07,17,13,58,24.40
2018,07,17,13,59,24.40
2018,07,17,14,00,24.30
2018,07,17,14,01,24.30
2018,07,17,14,02,24.20
2018,07,17,14,03,24.20
2018,07,17,14,04,24.20
2018,07,17,14,05,24.20
2018,07,17,14,06,24.30
2018,07,17,14,07,24.20
2018,07,17,14,08,24.20
2018,07,17,14,09,24.20
2018,07,17,14,10,24.20
2018,07,17,14,11,24.10
2018,07,17,14,12,24.10
2018,07,17,14,13,24.00
2018,07,17,14,14,24.00
2018,07,17,14,15,23.90
2018,07,17,14,16,23.80
2018,07,17,14,17,23.80
2018,07,17,14,18,23.80
2018,07,17,14,19,23.80
2018,07,17,14,20,23.80
2018,07,17,14,21,23.70
2018,07,17,14,22,23.70
2018,07,17,14,23,23.70
2018,07,17,14,24,23.70
2018,07,17,14,25,23.60
2018,07,17,14,26,23.60
2018,07,17,14,27,23.50
2018,07,17,14,28,23.50
2018,07,17,14,29,23.40
2018,07,17,14,30,23.50
2018,07,17,14,31,23.50
2018,07,17,14,32,23.60
2018,07,17,14,33,23.70
2018,07,17,14,34,23.80
2018,07,17,14,35,23.80
2018,07,17,14,36,23.90
2018,07,17,14,37,23.90
2018,07,17,14,38,24.00
2018,07,17,14,39,24.10
2018,07,17,14,40,24.10
2018,07,17,14,41,24.20
2018,07,17,14,42,24.10
2018,07,17,14,43,24.10
2018,07,17,14,44,24.00
2018,07,17,14,45,24.00
2018,07,17,14,46,23.90
2018,07,17,14,47,23.90
2018,07,17,14,48,23.90
2018,07,17,14,49,23.90
2018,07,17,14,50,23.90
2018,07,17,14,51,23.80
2018,07,17,14,52,23.80
2018,07,17,14,53,23.80
2018,07,17,14,54,23.90
2018,07,17,14,55,23.90
2018,07,17,14,56,23.90
2018,07,17,14,57,23.90
2018,07,17,14,58,24.00
2018,07,17,14,59,24.10
2018,07,17,15,00,24.20
2018,07,17,15,01,24.20
2018,07,17,15,02,24.20
2018,07,17,15,03,24.30
2018,07,17,15,04,24.30
2018,07,17,15,05,24.40
2018,07,17,15,06,24.40
2018,07,17,15,07,24.40
2018,07,17,15,08,24.40
2018,07,17,15,09,24.40
2018,07,17,15,10,24.50
2018,07,17,15,11,24.50
2018,07,17,15,12,24.60
2018,07,17,15,13,24.70
2018,07,17,15,14,24.80
2018,07,17,15,15,24.90
2018,07,17,15,16,24.90
2018,07,17,15,17,24.90
2018,07,17,15,18,24.90
2018,07,17,15,19,24.90
2018,07,17,15,20,24.90
2018,07,17,15,21,24.90
2018,07,17,15,22,24.90
2018,07,17,15,23,24.90
2018,07,17,15,24,24.80
2018,07,17,15,25,24.80
2018,07,17,15,26,24.80
2018,07,17,15,27,24.70
2018,07,17,15,28,24.70
2018,07,17,15,29,24.70
2018,07,17,15,30,24.60
2018,07,17,15,31,24.60
2018,07,17,15,32,24.50
2018,07,17,15,33,24.40
2018,07,17,15,34,24.30
2018,07,17,15,35,24.10
2018,07,17,15,36,24.00
2018,07,17,15,37,24.00
2018,07,17,15,38,24.00
2018,07,17,15,39,24.00
2018,07,17,15,40,24.10
2018,07,17,15,41,24.20
2018,07,17,15,42,24.20
2018,07,17,15,43,24.30
2018,07,17,15,44,24.30
2018,07,17,15,45,24.30
2018,07,17,15,46,24.30
2018,07,17,15,47,24.30
2018,07,17,15,48,24.30
2018,07,17,15,49,24.30
2018,07,17,15,50,24.40
2018,07,17,15,51,24.40
2018,07,17,15,52,24.40
2018,07,17,15,53,24.40
2018,07,17,15,54,24.40
2018,07,17,15,55,24.40
2018,07,17,15,56,24.40
2018,07,17,15,57,24.50
2018,07,17,15,58,24.50
2018,07,17,15,59,24.60
2018,07,17,16,00,24.60
2018,07,17,16,01,24.60
2018,07,17,16,02,24.70
2018,07,17,16,03,24.80
2018,07,17,16,04,24.80
2018,07,17,16,05,24.90
2018,07,17,16,06,24.90
2018,07,17,16,07,25.00
2018,07,17,16,08,25.10
2018,07,17,16,09,25.10
2018,07,17,16,10,25.20
2018,07,17,16,11,25.20
2018,07,17,16,12,25.20
2018,07,17,16,13,25.20
2018,07,17,16,14,25.10
2018,07,17,16,15,25.10
2018,07,17,16,16,25.20
2018,07,17,16,17,25.20
2018,07,17,16,18,25.20
2018,07,17,16,19,25.20
2018,07,17,16,20,25.20
2018,07,17,16,21,25.10
2018,07,17,16,22,25.20
2018,07,17,16,23,25.20
2018,07,17,16,24,25.20
2018,07,17,16,25,25.20
2018,07,17,16,26,25.30
2018,07,17,16,27,25.30
2018,07,17,16,28,25.30
2018,07,17,16,29,25.30
2018,07,17,16,30,25.30
2018,07,17,16,31,25.30
2018,07,17,16,32,25.30
2018,07,17,16,33,25.30
2018,07,17,16,34,25.30
2018,07,17,16,35,25.30
2018,07,17,16,36,25.40
2018,07,17,16,37,25.40
2018,07,17,16,38,25.40
2018,07,17,16,39,25.50
2018,07,17,16,40,25.60
2018,07,17,16,41,25.80
2018,07,17,16,42,25.80
2018,07,17,16,43,25.80
2018,07,17,16,44,25.90
2018,07,17,16,45,25.90
2018,07,17,16,46,25.90
2018,07,17,16,47,25.80
2018,07,17,16,48,25.80
2018,07,17,16,49,25.80
2018,07,17,16,50,25.70
2018,07,17,16,51,25.70
2018,07,17,16,52,25.70
2018,07,17,16,53,25.70
2018,07,17,16,54,25.70
2018,07,17,16,55,25.70
2018,07,17,16,56,25.80
2018,07,17,16,57,25.80
2018,07,17,16,58,25.80
2018,07,17,16,59,25.80
2018,07,17,17,00,25.80
2018,07,17,17,01,25.90
2018,07,17,17,02,25.80
2018,07,17,17,03,25.90
2018,07,17,17,04,25.90
2018,07,17,17,05,25.90
2018,07,17,17,06,25.90
2018,07,17,17,07,25.80
2018,07,17,17,08,25.80
2018,07,17,17,09,25.80
2018,07,17,17,10,25.80
2018,07,17,17,11,25.70
2018,07,17,17,12,25.70
2018,07,17,17,13,25.70
2018,07,17,17,14,25.70
2018,07,17,17,15,25.70
2018,07,17,17,16,25.80
2018,07,17,17,17,25.80
2018,07,17,17,18,25.80
2018,07,17,17,19,25.80